NJE242 EGPH-LGRP

Flight info

Callsign NJE242
Flight time N/A
Altitude 41000
Route TLA Y96 HAVEN DCT OTBUN DCT ERKIT N110 DOLAS DCT NAVPI DCT TIVUN DCT ESAMA DCT OSBIT DCT TENLO DCT LAMSI DCT NIDLO DCT VABEK UL603 OLOTA DCT RUGAS DCT GIKAS DCT MES UN139 LURUS UL995 CODIC
Aircraft E190/M-SDE1E2E3FGHIJ3J4J7P2RWXY/LB1D1G1

Departure

Time 2026-05-05 17:45
Airport Edinburgh Airport (EGPH)

Arrival

Time N/A
Airport Rhodes International Airport "Diagoras" (LGRP)
Time Latitude Longitude Altitude Speed Heading
2026-05-05 17:28 55.94743 -3.36872 103 ft 0 kts 269°
2026-05-05 17:37 55.94743 -3.36859 103 ft 2 kts 269°
2026-05-05 17:37 55.94743 -3.36832 103 ft 2 kts 270°
2026-05-05 17:37 55.94741 -3.36806 103 ft 2 kts 290°
2026-05-05 17:38 55.94734 -3.36781 103 ft 2 kts 304°
2026-05-05 17:38 55.94725 -3.36761 103 ft 2 kts 319°
2026-05-05 17:38 55.94712 -3.36746 104 ft 2 kts 334°
2026-05-05 17:38 55.94698 -3.36736 104 ft 2 kts 349°
2026-05-05 17:39 55.94689 -3.36734 104 ft 1 kts 358°
2026-05-05 17:39 55.94684 -3.36734 104 ft 0 kts 359°
2026-05-05 17:40 55.94687 -3.36734 104 ft 2 kts 359°
2026-05-05 17:40 55.94721 -3.36738 103 ft 7 kts 357°
2026-05-05 17:40 55.94785 -3.36773 102 ft 11 kts 351°
2026-05-05 17:41 55.94875 -3.36784 101 ft 12 kts 341°
2026-05-05 17:41 55.94920 -3.36911 99 ft 14 kts 246°
2026-05-05 17:41 55.94867 -3.37068 100 ft 15 kts 238°
2026-05-05 17:41 55.94810 -3.37230 101 ft 16 kts 241°
2026-05-05 17:42 55.94751 -3.37413 100 ft 18 kts 239°
2026-05-05 17:42 55.94684 -3.37611 101 ft 19 kts 239°
2026-05-05 17:42 55.94613 -3.37819 103 ft 19 kts 239°
2026-05-05 17:42 55.94544 -3.38022 106 ft 19 kts 239°
2026-05-05 17:43 55.94474 -3.38228 109 ft 19 kts 239°
2026-05-05 17:43 55.94403 -3.38438 110 ft 20 kts 239°
2026-05-05 17:43 55.94343 -3.38617 111 ft 13 kts 239°
2026-05-05 17:43 55.94295 -3.38758 113 ft 12 kts 239°
2026-05-05 17:44 55.94307 -3.38886 114 ft 12 kts 325°
2026-05-05 17:44 55.94391 -3.38965 113 ft 15 kts 352°
2026-05-05 17:44 55.94455 -3.38854 112 ft 14 kts 62°
2026-05-05 17:44 55.94512 -3.38685 108 ft 18 kts 60°
2026-05-05 17:45 55.94588 -3.38458 106 ft 33 kts 59°
2026-05-05 17:45 55.94842 -3.37709 99 ft 104 kts 60°
2026-05-05 17:45 55.95307 -3.36330 213 ft 146 kts 61°
2026-05-05 17:45 55.95835 -3.34801 827 ft 151 kts 60°
2026-05-05 17:46 55.96384 -3.33137 1343 ft 168 kts 61°
2026-05-05 17:46 55.97055 -3.31177 1561 ft 207 kts 58°
2026-05-05 17:46 55.98010 -3.29103 2332 ft 218 kts 44°
2026-05-05 17:46 55.99022 -3.27673 3818 ft 186 kts 38°
2026-05-05 17:47 56.00165 -3.26228 4374 ft 213 kts 35°
2026-05-05 17:47 56.01416 -3.24767 5305 ft 222 kts 32°
2026-05-05 17:47 56.02718 -3.23338 6333 ft 227 kts 31°
2026-05-05 17:47 56.03987 -3.21541 7120 ft 247 kts 47°
2026-05-05 17:48 56.04917 -3.18819 7741 ft 273 kts 67°
2026-05-05 17:48 56.05300 -3.15425 8346 ft 286 kts 86°
2026-05-05 17:48 56.05096 -3.11882 8704 ft 291 kts 104°
2026-05-05 17:48 56.04256 -3.08555 9369 ft 298 kts 123°
2026-05-05 17:49 56.02993 -3.05655 9984 ft 303 kts 129°
2026-05-05 17:49 56.01642 -3.02695 10604 ft 308 kts 130°
2026-05-05 17:49 56.00290 -2.99779 11252 ft 316 kts 130°
2026-05-05 17:49 55.98832 -2.96684 11938 ft 331 kts 130°
2026-05-05 17:50 55.97275 -2.93621 12619 ft 346 kts 133°
2026-05-05 17:50 55.95799 -2.90101 13310 ft 360 kts 122°
2026-05-05 17:50 55.94539 -2.86240 13977 ft 373 kts 118°
2026-05-05 17:50 55.93305 -2.82055 14649 ft 385 kts 117°
2026-05-05 17:51 55.92100 -2.77809 15289 ft 392 kts 117°
2026-05-05 17:51 55.90513 -2.73871 15944 ft 393 kts 139°
2026-05-05 17:51 55.88202 -2.71445 16617 ft 389 kts 165°
2026-05-05 17:51 55.85585 -2.70918 17282 ft 384 kts 189°
2026-05-05 17:52 55.83073 -2.72379 17962 ft 379 kts 214°
2026-05-05 17:52 55.81090 -2.75321 18646 ft 376 kts 226°
2026-05-05 17:52 55.79189 -2.78565 19318 ft 381 kts 226°
2026-05-05 17:52 55.77294 -2.81800 19971 ft 385 kts 226°
2026-05-05 17:53 55.75333 -2.85037 20625 ft 391 kts 220°
2026-05-05 17:53 55.72945 -2.87358 21292 ft 398 kts 204°
2026-05-05 17:53 55.70299 -2.88921 21969 ft 405 kts 199°
2026-05-05 17:53 55.67579 -2.90243 22633 ft 409 kts 197°
2026-05-05 17:54 55.64817 -2.91492 23298 ft 411 kts 197°
2026-05-05 17:54 55.62035 -2.92718 23965 ft 415 kts 196°
2026-05-05 17:54 55.59269 -2.93925 24623 ft 420 kts 196°
2026-05-05 17:54 55.56413 -2.95167 25300 ft 423 kts 196°
2026-05-05 17:55 55.53557 -2.96407 25982 ft 428 kts 196°
2026-05-05 17:55 55.50605 -2.97442 26649 ft 435 kts 185°
2026-05-05 17:55 55.47596 -2.96773 27351 ft 444 kts 166°
2026-05-05 17:55 55.44696 -2.94826 28058 ft 449 kts 156°
2026-05-05 17:56 55.42032 -2.92072 28734 ft 454 kts 147°
2026-05-05 17:56 55.39585 -2.88467 29427 ft 459 kts 137°
2026-05-05 17:56 55.37524 -2.84243 30110 ft 463 kts 127°
2026-05-05 17:56 55.35845 -2.79383 30795 ft 466 kts 117°
2026-05-05 17:57 55.34649 -2.74182 31449 ft 468 kts 108°
2026-05-05 17:57 55.33926 -2.68586 32114 ft 470 kts 98°
2026-05-05 17:57 55.33635 -2.62890 32777 ft 469 kts 97°
2026-05-05 17:57 55.33021 -2.57375 33430 ft 467 kts 107°
2026-05-05 17:58 55.31899 -2.52083 34090 ft 464 kts 117°
2026-05-05 17:58 55.30290 -2.47178 34756 ft 457 kts 127°
2026-05-05 17:58 55.28303 -2.42957 35287 ft 452 kts 137°
2026-05-05 17:58 55.25963 -2.39407 35765 ft 445 kts 147°
2026-05-05 17:59 55.23387 -2.36578 36205 ft 439 kts 150°
2026-05-05 17:59 55.20871 -2.33615 36751 ft 436 kts 147°
2026-05-05 17:59 55.18448 -2.30514 37376 ft 432 kts 146°
2026-05-05 17:59 55.16068 -2.27396 37998 ft 427 kts 146°
2026-05-05 18:00 55.13730 -2.24315 38613 ft 421 kts 146°
2026-05-05 18:00 55.11402 -2.21244 39229 ft 414 kts 146°
2026-05-05 18:00 55.09164 -2.18293 39736 ft 407 kts 146°
2026-05-05 18:00 55.06953 -2.15382 40263 ft 398 kts 146°
2026-05-05 18:01 55.04777 -2.12522 40768 ft 389 kts 146°
2026-05-05 18:01 55.02619 -2.09689 40885 ft 393 kts 146°
2026-05-05 18:01 55.00415 -2.06800 41026 ft 396 kts 146°
2026-05-05 18:02 54.95987 -2.01009 41076 ft 408 kts 146°
2026-05-05 18:02 54.91381 -1.94999 41075 ft 422 kts 145°
2026-05-05 18:03 54.86622 -1.88809 41081 ft 435 kts 146°
2026-05-05 18:03 54.81727 -1.82463 41082 ft 448 kts 145°
2026-05-05 18:04 54.76686 -1.75946 41072 ft 460 kts 145°
2026-05-05 18:04 54.71559 -1.69340 41069 ft 471 kts 145°
2026-05-05 18:05 54.66278 -1.62558 41065 ft 473 kts 145°
2026-05-05 18:05 54.61032 -1.55843 41065 ft 472 kts 145°
2026-05-05 18:06 54.55797 -1.49164 41061 ft 472 kts 145°
2026-05-05 18:06 54.50565 -1.42511 41061 ft 472 kts 145°
2026-05-05 18:07 54.45303 -1.35841 41063 ft 471 kts 145°
2026-05-05 18:07 54.40078 -1.29239 41058 ft 471 kts 146°
2026-05-05 18:08 54.34801 -1.22596 41055 ft 471 kts 146°
2026-05-05 18:08 54.29525 -1.15973 41050 ft 471 kts 146°
2026-05-05 18:09 54.24261 -1.09386 41045 ft 471 kts 146°
2026-05-05 18:09 54.19455 -1.03392 41043 ft 470 kts 146°
2026-05-05 18:09 54.17507 -1.00968 40914 ft 470 kts 146°
2026-05-05 18:10 54.14868 -0.97687 41045 ft 466 kts 146°
2026-05-05 18:10 54.09682 -0.91256 41032 ft 465 kts 146°
2026-05-05 18:11 53.56367 -0.07415 40994 ft 463 kts 149°
2026-05-05 18:11 53.50613 -0.03005 41007 ft 455 kts 165°
2026-05-05 18:12 53.44986 0.01562 40995 ft 457 kts 145°
2026-05-05 18:12 53.40501 0.08999 40998 ft 460 kts 126°
2026-05-05 18:13 53.38539 0.14672 40999 ft 461 kts 114°
2026-05-05 18:13 52.08612 3.76087 40889 ft 464 kts 125°
2026-05-05 18:14 52.05187 3.84818 40907 ft 462 kts 124°
2026-05-05 18:14 52.01818 3.93469 40918 ft 461 kts 124°
2026-05-05 18:15 52.00070 3.97949 40908 ft 460 kts 124°